Location: Schommer Observatory
(40.5200°N, 74.4500°W)
Time: 14:32:43
(UTC-04:00)

OTV 5 (USA 277) - Visible Passes

Search period start: 15 October 2019 00:00
Search period end: 25 October 2019 00:00
Orbit: 310 x 324 km, 54.5° (Epoch: 08 October)

Date Brightness Start Highest point End Pass type
(mag) Time Alt. Az. Time Alt. Az. Time Alt. Az.
16 Oct ? 06:11:50 10° NNW 06:13:42 16° NNE 06:15:33 10° ENE visible
17 Oct ? 06:25:54 10° NNW 06:28:28 34° NE 06:30:59 10° ESE visible
18 Oct ? 05:08:44 12° NNE 05:08:44 12° NNE 05:09:38 10° NE visible
18 Oct ? 06:40:18 10° NW 06:43:03 80° SW 06:45:46 10° SE visible
19 Oct ? 05:23:15 23° NE 05:23:15 23° NE 05:25:28 10° E visible
20 Oct ? 05:37:53 56° NE 05:37:53 56° NE 05:40:34 10° ESE visible
21 Oct ? 05:52:41 41° SSW 05:52:41 41° SSW 05:55:00 10° SSE visible
22 Oct ? 06:07:36 13° SSW 06:07:36 13° SSW 06:08:26 10° SSW visible
